[[{"header":{"parameterUnit":"m.s-1","parameterCategory":2,"la1":30.2991,"la2":30.254,"lo1":-89.0895,"lo2":-89.0444,"dy":0.0017,"dx":0.0017,"nx":28,"ny":28,"refTime":"2024-04-10T09:00:00:Z","depth":"0","parameterNumber":2,"parameterNumberName":"U-component_of_CURRENTS"},"data":[0,0,0,0,0,0,0,0,0,0,0,0,0,0,0,0,0,0,0,0,0,0,0,0,0,0,0,0,0,0,0,0,0,0,0,0,0,0,0,0,0,0,0,0,0,0,0,0,0,0,0,0,0,0,0,0,0,0,-0.3192,-0.3192,0,-0.3126,-0.3125,-0.3124,-0.3034,-0.3033,-0.3032,-0.3031,-0.2854,-0.285,-0.2846,0,0,0,0,0,0,0,0,0,0,0,0,0,-0.3102,-0.3105,-0.3192,-0.3192,-0.3192,-0.3127,-0.3125,-0.3123,-0.3034,-0.3033,-0.3032,-0.3031,-0.2855,-0.2851,-0.2846,0,0,0,0,0,0,0,0,0,0,0,0,0,-0.3092,-0.3105,-0.3192,-0.3146,-0.3141,-0.3127,-0.3125,-0.3123,-0.3034,-0.3033,-0.3032,-0.3031,-0.2857,-0.2851,-0.2845,-0.2831,0,0,-0.2827,-0.2824,0,0,0,0,0,0,0,0,-0.3093,-0.3094,-0.3153,-0.3149,-0.3144,-0.3094,-0.3029,-0.3022,-0.3034,-0.3066,-0.3031,-0.303,-0.293,-0.2918,-0.2898,-0.2822,-0.2815,-0.2826,-0.2823,-0.282,-0.2818,0,0,0,0,0,0,0,-0.3094,-0.3096,-0.3158,-0.3153,-0.3148,-0.3081,-0.3079,-0.3026,-0.2997,-0.3063,-0.3059,-0.3065,-0.2926,-0.2904,-0.2893,-0.2812,-0.2826,-0.2821,-0.2817,-0.2815,-0.2713,-0.2714,0,0,0,0,0,0,-0.3128,-0.3098,-0.316,-0.3157,-0.3124,-0.3085,-0.3082,-0.3105,-0.3,-0.2986,-0.3066,-0.3061,-0.2915,-0.29,-0.2887,-0.2869,-0.282,-0.2814,-0.2811,-0.2712,-0.2713,-0.2714,0,0,0,0,0,0,-0.3126,-0.3135,-0.3163,-0.3131,-0.3131,-0.309,-0.3115,-0.3104,-0.3089,-0.3005,-0.2986,-0.3063,-0.2914,-0.2895,-0.285,-0.2861,-0.2812,-0.2806,-0.2711,-0.2712,-0.2714,-0.2829,0,0,0,0,0,0,-0.3124,-0.3135,-0.3153,-0.3134,-0.3134,-0.317,-0.3117,-0.3104,-0.3098,-0.3091,-0.2996,-0.2978,-0.2911,-0.286,-0.2844,-0.2852,-0.2801,-0.271,-0.2712,-0.2713,-0.2824,-0.2835,-0.2843,0,0,0,0,0,-0.3121,-0.316,-0.3155,-0.3162,-0.3165,-0.3172,-0.3165,-0.3124,-0.31,-0.3103,-0.3039,-0.2982,-0.2859,-0.2856,-0.2838,-0.2843,-0.2709,-0.2711,-0.2713,-0.282,-0.2833,-0.2843,0,0,0,0,0,0,-0.3132,-0.3154,-0.3148,-0.3192,-0.319,-0.316,-0.3159,-0.314,-0.3092,-0.3076,-0.2992,-0.2971,-0.2932,-0.2879,-0.2878,-0.282,-0.2775,-0.2774,-0.2863,-0.2874,-0.2883,-0.2861,-0.2796,0,0,0,0,0,-0.3148,-0.3177,-0.3186,-0.3217,-0.3222,-0.3194,-0.3189,-0.3168,-0.3132,-0.311,-0.3049,-0.2981,-0.2926,-0.2895,-0.2835,-0.2809,-0.2755,-0.2801,-0.2811,-0.2819,-0.2789,-0.2739,-0.2741,-0.2721,-0.2721,-0.2721,0,0,-0.3159,-0.3176,-0.3191,-0.322,-0.3208,-0.3216,-0.3185,-0.319,-0.3179,-0.3098,-0.3057,-0.3009,-0.2927,-0.2891,-0.287,-0.2848,-0.2805,-0.2822,-0.2829,-0.2794,-0.2741,-0.2743,-0.2744,-0.2722,-0.2722,-0.2722,0,0,-0.3185,-0.3215,-0.3237,-0.3245,-0.3251,-0.3239,-0.3251,-0.3233,-0.3205,-0.3181,-0.3114,-0.3072,-0.2999,-0.2936,-0.2896,-0.2922,-0.2856,-0.2921,-0.2947,-0.2901,-0.2902,-0.2901,-0.2874,-0.287,-0.2927,-0.2927,-0.2928,0,-0.3195,-0.3229,-0.3242,-0.3262,-0.3269,-0.3257,-0.3272,-0.3249,-0.3214,-0.3195,-0.3179,-0.307,-0.3008,-0.2949,-0.2957,-0.2938,-0.2914,-0.2916,-0.2913,-0.2911,-0.2909,-0.288,-0.2875,-0.2933,-0.2933,-0.2932,-0.2931,0,-0.3222,-0.3253,-0.327,-0.329,-0.3301,-0.3317,-0.3306,-0.3302,-0.328,-0.3249,-0.32,-0.3124,-0.3059,-0.3047,-0.3003,-0.2965,-0.2957,-0.2933,-0.2886,-0.2918,-0.2886,-0.2878,-0.2942,-0.294,-0.2938,-0.2936,0,0,-0.3232,-0.3279,-0.3281,-0.3295,-0.3319,-0.3329,-0.3331,-0.3323,-0.3311,-0.3273,-0.3243,-0.3163,-0.3134,-0.3085,-0.3038,-0.2991,-0.2973,-0.2966,-0.2961,-0.2942,-0.2893,-0.2899,-0.2891,-0.2964,-0.2963,-0.2961,-0.2892,0,-0.3242,-0.3278,-0.3302,-0.3332,-0.3352,-0.3362,-0.3364,-0.3355,-0.3332,-0.3301,-0.323,-0.3181,-0.3147,-0.3125,-0.3077,-0.2989,-0.2951,-0.2994,-0.2859,-0.2855,-0.2858,-0.288,-0.287,-0.2808,-0.2884,-0.2882,-0.2881,0,-0.3242,-0.3275,-0.3304,-0.3354,-0.3363,-0.3376,-0.3384,-0.3385,-0.335,-0.3336,-0.3292,-0.3239,-0.3166,-0.3132,-0.3004,-0.3044,-0.2972,-0.2905,-0.2901,-0.2845,-0.2844,-0.2779,-0.2789,-0.2779,-0.2868,-0.2869,-0.287,0,-0.3209,-0.3271,-0.3292,-0.3308,-0.3362,-0.3373,-0.3391,-0.3384,-0.3375,-0.3349,-0.3337,-0.3262,-0.3208,-0.3116,-0.3003,-0.3007,-0.2859,-0.2847,-0.2781,-0.2782,-0.2708,-0.2705,-0.2683,-0.2742,-0.2742,-0.2742,-0.2743,0,-0.32,-0.3215,-0.3278,-0.3289,-0.3304,-0.3361,-0.3363,-0.3371,-0.3379,-0.3354,-0.3345,-0.329,-0.3198,-0.3112,-0.3015,-0.2884,-0.2876,-0.2772,-0.2756,-0.2755,-0.2756,-0.2688,-0.2693,-0.274,-0.274,-0.2741,-0.2741,0,-0.3129,-0.3184,-0.32,-0.3264,-0.3281,-0.3279,-0.3332,-0.3348,-0.3372,-0.3338,-0.3334,-0.3298,-0.3194,-0.3109,-0.2949,-0.2893,-0.2737,-0.2723,-0.2744,-0.2732,-0.2669,-0.2681,-0.2579,-0.2491,-0.2639,-0.2639,-0.2638,0,-0.3086,-0.309,-0.3136,-0.3152,-0.3173,-0.3204,-0.3238,-0.3306,-0.3324,-0.3313,-0.3289,-0.3218,-0.3123,-0.2953,-0.2855,-0.2727,-0.2682,-0.2659,-0.2644,-0.2657,-0.2657,-0.2649,-0.258,-0.2605,-0.2605,-0.2604,-0.2604,0,-0.2981,-0.2988,-0.301,-0.3014,-0.3052,-0.3062,-0.3112,-0.3126,-0.3199,-0.3168,-0.3097,-0.3026,-0.2969,-0.2842,-0.2752,-0.2663,-0.264,-0.2645,-0.2634,-0.2604,-0.2611,-0.2524,-0.2682,-0.26,-0.26,-0.26,-0.2601,-0.2601,-0.287,-0.2842,-0.2848,-0.2824,-0.2873,-0.2828,-0.2715,-0.2796,-0.2726,-0.2555,-0.279,-0.26,-0.2831,-0.2689,-0.2629,-0.2594,-0.2549,-0.2549,-0.2556,-0.2541,-0.2472,-0.264,-0.2559,-0.256,-0.256,-0.256,-0.256,0,-0.2686,-0.2659,-0.2654,-0.2584,-0.2506,-0.2582,-0.2547,-0.2365,-0.2154,-0.2153,-0.2058,-0.2249,-0.2346,-0.2489,-0.2615,-0.2544,-0.2461,-0.25,-0.2481,-0.2402,-0.2529,-0.2545,-0.2488,-0.2488,-0.2488,-0.2488,-0.2488,-0.2488,-0.2592,-0.2476,-0.2444,-0.2184,-0.214,-0.1881,-0.1764,-0.1567,-0.1456,-0.1237,-0.1225,-0.1311,-0.1873,-0.2506,-0.2621,-0.2557,-0.2443,-0.2439,-0.2355,-0.2483,-0.2488,-0.2493,-0.2509,-0.2445,-0.2445,-0.2185,-0.2184,-0.2183]},{"header":{"parameterUnit":"m.s-1","parameterCategory":2,"la1":30.2991,"la2":30.254,"lo1":-89.0895,"lo2":-89.0444,"dy":0.0017,"dx":0.0017,"nx":28,"ny":28,"refTime":"2024-04-10T09:00:00:Z","depth":"0","parameterNumber":3,"parameterNumberName":"V-component_of_CURRENTS"},"data":[0,0,0,0,0,0,0,0,0,0,0,0,0,0,0,0,0,0,0,0,0,0,0,0,0,0,0,0,0,0,0,0,0,0,0,0,0,0,0,0,0,0,0,0,0,0,0,0,0,0,0,0,0,0,0,0,0,0,0.0179,0.0181,0,0.0342,0.0344,0.0346,0.0413,0.0413,0.0413,0.0413,0.0573,0.0578,0.0582,0,0,0,0,0,0,0,0,0,0,0,0,0,-0.0009,-0.0007,0.0179,0.0181,0.0183,0.0342,0.0344,0.0346,0.0413,0.0413,0.0413,0.0413,0.0572,0.0577,0.0583,0,0,0,0,0,0,0,0,0,0,0,0,0,0.0103,-0.0006,0.0179,0.0237,0.0244,0.0341,0.0344,0.0347,0.0413,0.0413,0.0413,0.0413,0.057,0.0577,0.0583,0.063,0,0,0.0604,0.0607,0,0,0,0,0,0,0,0,0.0096,0.0109,0.0227,0.0234,0.0242,0.0359,0.0337,0.0442,0.0413,0.0347,0.0413,0.0412,0.0503,0.0515,0.0544,0.0637,0.0644,0.0604,0.0608,0.0611,0.0613,0,0,0,0,0,0,0,0.0088,0.0103,0.0242,0.0229,0.0238,0.0278,0.0293,0.0357,0.0423,0.0353,0.0359,0.038,0.0507,0.0537,0.0548,0.0646,0.0604,0.061,0.0614,0.0617,0.0802,0.0803,0,0,0,0,0,0,0.0069,0.0096,0.0237,0.0247,0.0169,0.0281,0.0298,0.032,0.0423,0.0439,0.038,0.0383,0.0526,0.054,0.0554,0.0627,0.0611,0.0617,0.0621,0.0801,0.0802,0.0803,0,0,0,0,0,0,0.0065,0.008,0.023,0.0176,0.0198,0.0285,0.0309,0.0323,0.0354,0.0443,0.0459,0.0396,0.0526,0.0545,0.0619,0.0633,0.062,0.0626,0.08,0.0801,0.0803,0.0765,0,0,0,0,0,0,0.0058,0.0078,0.008,0.0175,0.0201,0.0281,0.031,0.0327,0.0368,0.0373,0.0462,0.0477,0.0527,0.0609,0.0626,0.0642,0.0632,0.0799,0.0801,0.0802,0.0765,0.0765,0.0765,0,0,0,0,0,0.0051,0.0056,0.0079,0.0096,0.0203,0.0282,0.0298,0.0358,0.0369,0.0383,0.0449,0.0474,0.0631,0.0615,0.0635,0.0653,0.0798,0.08,0.0802,0.0765,0.0765,0.0765,0,0,0,0,0,0,-0.0028,0.0067,0.0093,0.0125,0.0195,0.0294,0.031,0.0353,0.0417,0.0417,0.0495,0.0515,0.0583,0.0625,0.0605,0.0711,0.0716,0.0722,0.0681,0.0681,0.0681,0.0661,0.0637,0,0,0,0,0,-0.0044,-0.0015,0.0081,0.0104,0.0135,0.022,0.0256,0.03,0.0373,0.04,0.0467,0.0537,0.0608,0.0648,0.0711,0.0775,0.0827,0.0797,0.0797,0.0796,0.0794,0.0887,0.0894,0.081,0.081,0.081,0,0,-0.0073,-0.0014,-0.0001,0.0089,0.0143,0.0187,0.024,0.0291,0.0332,0.0408,0.0472,0.0538,0.0624,0.0695,0.0728,0.0732,0.0851,0.0799,0.0798,0.0796,0.089,0.0898,0.0905,0.0812,0.0811,0.0811,0,0,-0.0111,-0.006,-0.005,0.0007,0.0091,0.0154,0.0165,0.0263,0.0308,0.0383,0.0449,0.0526,0.0625,0.0702,0.075,0.0789,0.0843,0.0801,0.0792,0.0882,0.0889,0.0897,0.098,0.0995,0.0805,0.0805,0.0804,0,-0.0152,-0.0119,-0.0037,-0.0007,0.0034,0.0133,0.0155,0.0225,0.0334,0.0379,0.0391,0.0566,0.0632,0.0745,0.0755,0.0789,0.0843,0.0783,0.0881,0.0889,0.0897,0.0982,0.0999,0.0803,0.0803,0.0803,0.0803,0,-0.0175,-0.0149,-0.0138,-0.0065,-0.0008,0.0027,0.0136,0.0197,0.0259,0.0333,0.0445,0.0552,0.0658,0.0691,0.0735,0.0832,0.0853,0.0865,0.0876,0.0903,0.0991,0.1009,0.0801,0.0801,0.0802,0.0802,0,0,-0.0259,-0.0175,-0.0173,-0.0154,-0.0037,0.0005,0.0087,0.0192,0.0252,0.0353,0.044,0.0565,0.0627,0.0687,0.0766,0.0842,0.0947,0.0868,0.0874,0.0942,0.1146,0.1283,0.1316,0.0974,0.0977,0.0979,0.1186,0,-0.0304,-0.0298,-0.0216,-0.0189,-0.0175,-0.0045,0.0029,0.014,0.0246,0.0356,0.0485,0.0588,0.0628,0.0687,0.0773,0.0914,0.0993,0.089,0.1117,0.1124,0.1236,0.1341,0.149,0.1699,0.1205,0.1208,0.121,0,-0.0353,-0.0338,-0.0344,-0.0253,-0.0229,-0.0184,-0.0043,0.0039,0.0225,0.0311,0.0445,0.0557,0.0717,0.0727,0.0976,0.0908,0.1015,0.1109,0.1119,0.1272,0.1297,0.1593,0.1751,0.1974,0.1239,0.1236,0.1234,0,-0.0475,-0.042,-0.0436,-0.0408,-0.0288,-0.0246,-0.0168,0.0006,0.0095,0.0283,0.0376,0.0569,0.0696,0.0849,0.1068,0.1022,0.1336,0.1302,0.1524,0.1534,0.1721,0.1743,0.2117,0.1454,0.1454,0.1453,0.1453,0,-0.0558,-0.0563,-0.0502,-0.0506,-0.049,-0.036,-0.0288,-0.0171,0.0018,0.0156,0.0332,0.0501,0.073,0.0952,0.1095,0.1409,0.1372,0.1558,0.1616,0.1714,0.1732,0.198,0.2026,0.1461,0.146,0.1458,0.1457,0,-0.0685,-0.0651,-0.0658,-0.0576,-0.0553,-0.0543,-0.0387,-0.0302,-0.0121,0.0074,0.0139,0.0467,0.0795,0.1036,0.1339,0.1483,0.1899,0.1827,0.1931,0.1999,0.2401,0.2436,0.2753,0.2936,0.2114,0.2119,0.2123,0,-0.0748,-0.0776,-0.0747,-0.0753,-0.072,-0.0674,-0.0606,-0.0413,-0.0279,0.0087,0.0202,0.0559,0.0898,0.141,0.1729,0.2064,0.2142,0.2351,0.2293,0.2499,0.2579,0.2508,0.2632,0.2524,0.2531,0.2536,0.2541,0,-0.0857,-0.0855,-0.0868,-0.0889,-0.0855,-0.0792,-0.0666,-0.056,-0.0256,-0.0039,0.0378,0.0675,0.1248,0.1795,0.2214,0.2374,0.2562,0.248,0.2687,0.295,0.2905,0.3084,0.2287,0.2593,0.2588,0.2584,0.2581,0.2579,-0.0933,-0.0981,-0.0996,-0.0996,-0.0958,-0.0838,-0.0696,-0.0489,-0.0227,0.029,0.049,0.1035,0.1827,0.2496,0.2711,0.3186,0.299,0.3291,0.3321,0.3231,0.3418,0.2738,0.3105,0.3103,0.3101,0.3099,0.3098,0,-0.1001,-0.1039,-0.1075,-0.1032,-0.0946,-0.0904,-0.0653,-0.0391,0.0011,0.0437,0.0884,0.1732,0.25,0.3092,0.3786,0.4022,0.3998,0.4092,0.4047,0.414,0.3578,0.3612,0.4115,0.4115,0.4115,0.4114,0.4114,0.4114,-0.1036,-0.1093,-0.1097,-0.099,-0.0917,-0.0658,-0.0452,-0.0063,0.0315,0.1046,0.1548,0.1956,0.2684,0.395,0.4626,0.4673,0.4855,0.4777,0.4865,0.4489,0.4415,0.4344,0.4394,0.5053,0.5054,0.544,0.5444,0.5448]}],[{"header":{"parameterUnit":"m.s-1","parameterCategory":2,"la1":30.2991,"la2":30.254,"lo1":-89.0895,"lo2":-89.0444,"dy":0.0017,"dx":0.0017,"nx":28,"ny":28,"refTime":"2024-04-10T09:00:00:Z","depth":"2","parameterNumber":2,"parameterNumberName":"U-component_of_CURRENTS"},"data":[0,0,0,0,0,0,0,0,0,0,0,0,0,0,0,0,0,0,0,0,0,0,0,0,0,0,0,0,0,0,0,0,0,0,0,0,0,0,0,0,0,0,0,0,0,0,0,0,0,0,0,0,0,0,0,0,0,0,-0.3161,-0.3161,0,-0.3095,-0.3094,-0.3092,-0.3003,-0.3002,-0.3002,-0.3001,-0.2825,-0.2821,-0.2817,0,0,0,0,0,0,0,0,0,0,0,0,0,-0.3072,-0.3074,-0.3161,-0.3161,-0.3161,-0.3095,-0.3094,-0.3092,-0.3003,-0.3002,-0.3001,-0.3001,-0.2826,-0.2821,-0.2816,0,0,0,0,0,0,0,0,0,0,0,0,0,-0.3061,-0.3075,-0.3161,-0.3115,-0.3111,-0.3096,-0.3094,-0.3092,-0.3003,-0.3002,-0.3001,-0.3,-0.2828,-0.2822,-0.2816,-0.2801,0,0,-0.2798,-0.2795,0,0,0,0,0,0,0,0,-0.3062,-0.3064,-0.3122,-0.3118,-0.3113,-0.3063,-0.2998,-0.2992,-0.3004,-0.3036,-0.3001,-0.3,-0.29,-0.2888,-0.2868,-0.2793,-0.2785,-0.2797,-0.2793,-0.2791,-0.2789,0,0,0,0,0,0,0,-0.3063,-0.3065,-0.3127,-0.3122,-0.3117,-0.305,-0.3048,-0.2995,-0.2967,-0.3033,-0.3028,-0.3034,-0.2896,-0.2875,-0.2863,-0.2783,-0.2797,-0.2792,-0.2788,-0.2786,-0.2684,-0.2685,0,0,0,0,0,0,-0.3097,-0.3067,-0.3129,-0.3126,-0.3094,-0.3054,-0.3051,-0.3074,-0.2969,-0.2956,-0.3035,-0.303,-0.2885,-0.2871,-0.2857,-0.2839,-0.2791,-0.2785,-0.2782,-0.2683,-0.2684,-0.2685,0,0,0,0,0,0,-0.3096,-0.3104,-0.3132,-0.31,-0.31,-0.3059,-0.3084,-0.3073,-0.3058,-0.2974,-0.2956,-0.3033,-0.2884,-0.2865,-0.2821,-0.2832,-0.2782,-0.2777,-0.2682,-0.2684,-0.2685,-0.28,0,0,0,0,0,0,-0.3094,-0.3104,-0.3123,-0.3103,-0.3103,-0.3138,-0.3086,-0.3073,-0.3068,-0.306,-0.2966,-0.2948,-0.2882,-0.2831,-0.2815,-0.2822,-0.2772,-0.2681,-0.2683,-0.2684,-0.2795,-0.2805,-0.2814,0,0,0,0,0,-0.3091,-0.3129,-0.3124,-0.3131,-0.3134,-0.3141,-0.3134,-0.3093,-0.3069,-0.3072,-0.3008,-0.2952,-0.283,-0.2827,-0.2808,-0.2814,-0.268,-0.2682,-0.2684,-0.2791,-0.2804,-0.2814,0,0,0,0,0,0,-0.3101,-0.3124,-0.3118,-0.3162,-0.316,-0.3129,-0.3127,-0.3109,-0.3062,-0.3046,-0.2962,-0.2941,-0.2902,-0.285,-0.2849,-0.2791,-0.2746,-0.2745,-0.2834,-0.2844,-0.2854,-0.2832,-0.2767,0,0,0,0,0,-0.3118,-0.3146,-0.3156,-0.3187,-0.3192,-0.3163,-0.3158,-0.3138,-0.3102,-0.308,-0.3019,-0.2951,-0.2897,-0.2866,-0.2806,-0.278,-0.2726,-0.2772,-0.2782,-0.279,-0.2761,-0.271,-0.2712,-0.2692,-0.2692,-0.2692,0,0,-0.3129,-0.3146,-0.3161,-0.319,-0.3177,-0.3185,-0.3155,-0.316,-0.3148,-0.3068,-0.3027,-0.2979,-0.2897,-0.2862,-0.284,-0.2819,-0.2776,-0.2793,-0.28,-0.2765,-0.2712,-0.2714,-0.2716,-0.2693,-0.2693,-0.2693,0,0,-0.3155,-0.3184,-0.3207,-0.3215,-0.3221,-0.3208,-0.3221,-0.3202,-0.3175,-0.315,-0.3084,-0.3043,-0.2969,-0.2907,-0.2867,-0.2892,-0.2827,-0.2891,-0.2918,-0.2872,-0.2873,-0.2872,-0.2846,-0.2842,-0.2898,-0.2898,-0.2898,0,-0.3165,-0.3199,-0.3212,-0.3231,-0.3238,-0.3226,-0.3241,-0.3218,-0.3184,-0.3165,-0.3149,-0.304,-0.2978,-0.292,-0.2928,-0.2909,-0.2885,-0.2887,-0.2884,-0.2882,-0.288,-0.2852,-0.2846,-0.2904,-0.2903,-0.2903,-0.2902,0,-0.3191,-0.3223,-0.3239,-0.3259,-0.327,-0.3286,-0.3275,-0.3271,-0.3249,-0.3219,-0.317,-0.3094,-0.303,-0.3017,-0.2974,-0.2936,-0.2928,-0.2904,-0.2857,-0.2889,-0.2858,-0.285,-0.2912,-0.291,-0.2908,-0.2907,0,0,-0.3201,-0.3248,-0.325,-0.3264,-0.3288,-0.3298,-0.33,-0.3292,-0.328,-0.3243,-0.3213,-0.3133,-0.3104,-0.3055,-0.3009,-0.2962,-0.2944,-0.2937,-0.2932,-0.2913,-0.2865,-0.2871,-0.2863,-0.2936,-0.2934,-0.2933,-0.2865,0,-0.321,-0.3246,-0.327,-0.33,-0.332,-0.333,-0.3332,-0.3323,-0.33,-0.327,-0.3199,-0.3151,-0.3117,-0.3095,-0.3048,-0.296,-0.2923,-0.2965,-0.2831,-0.2827,-0.283,-0.2852,-0.2599,-0.2517,-0.2856,-0.2855,-0.2854,0,-0.3211,-0.3243,-0.3273,-0.3322,-0.3331,-0.3344,-0.3352,-0.3353,-0.3319,-0.3305,-0.3261,-0.3209,-0.3137,-0.3103,-0.2976,-0.3015,-0.2944,-0.2877,-0.2873,-0.2818,-0.2816,-0.253,-0.2489,-0.2839,-0.2841,-0.2842,-0.2843,0,-0.3178,-0.3239,-0.326,-0.3277,-0.333,-0.3341,-0.3359,-0.3352,-0.3344,-0.3318,-0.3307,-0.3233,-0.3179,-0.3088,-0.2976,-0.2979,-0.2832,-0.282,-0.2755,-0.2755,-0.2474,-0.2453,-0.2716,-0.2716,-0.2716,-0.2716,-0.2716,0,-0.3168,-0.3184,-0.3247,-0.3258,-0.3273,-0.333,-0.3333,-0.334,-0.3349,-0.3324,-0.3315,-0.3261,-0.317,-0.3084,-0.2988,-0.2858,-0.2849,-0.2745,-0.2729,-0.2516,-0.25,-0.2715,-0.2716,-0.2714,-0.2714,-0.2715,-0.2715,0,-0.3098,-0.3153,-0.3169,-0.3233,-0.3251,-0.3249,-0.3302,-0.3317,-0.3342,-0.3309,-0.3305,-0.3269,-0.3166,-0.3081,-0.2922,-0.2866,-0.2744,-0.2697,-0.2475,-0.2435,-0.2696,-0.2703,-0.2614,-0.2614,-0.2613,-0.2613,-0.2613,0,-0.3056,-0.3059,-0.3107,-0.3122,-0.3144,-0.3175,-0.3209,-0.3277,-0.3295,-0.3285,-0.326,-0.319,-0.3079,-0.291,-0.2748,-0.2601,-0.2697,-0.238,-0.2332,-0.2687,-0.2681,-0.2689,-0.2697,-0.2007,-0.2001,-0.1997,-0.1994,0,-0.2951,-0.2959,-0.2981,-0.2986,-0.3024,-0.3034,-0.3084,-0.3098,-0.3171,-0.3123,-0.3053,-0.2967,-0.2851,-0.2566,-0.2449,-0.2341,-0.2395,-0.2295,-0.2661,-0.2113,-0.2119,-0.2113,-0.2139,-0.1955,-0.1959,-0.1962,-0.1964,-0.1966,-0.2841,-0.2814,-0.282,-0.2797,-0.2847,-0.2802,-0.269,-0.2735,-0.2644,-0.2444,-0.2674,-0.2393,-0.248,-0.2045,-0.2013,-0.1976,-0.2118,-0.2051,-0.206,-0.2075,-0.2058,-0.2067,-0.189,-0.1894,-0.1896,-0.1899,-0.1901,0,-0.26,-0.2633,-0.2628,-0.2558,-0.2433,-0.2558,-0.2523,-0.2322,-0.2049,-0.2017,-0.1854,-0.165,-0.1504,-0.1601,-0.1451,-0.1545,-0.1483,-0.1555,-0.1439,-0.1477,-0.1511,-0.1463,-0.1138,-0.1137,-0.1135,-0.1134,0,0,-0.2491,-0.2353,-0.232,-0.2055,-0.2059,-0.1772,-0.1654,-0.1451,-0.1313,-0.1026,-0.0872,-0.0974,-0.1302,-0.1044,-0.1169,-0.1103,-0.1238,-0.1056,-0.1648,-0.1526,-0.1556,-0.1775,-0.1743,0,0,0,0,0]},{"header":{"parameterUnit":"m.s-1","parameterCategory":2,"la1":30.2991,"la2":30.254,"lo1":-89.0895,"lo2":-89.0444,"dy":0.0017,"dx":0.0017,"nx":28,"ny":28,"refTime":"2024-04-10T09:00:00:Z","depth":"2","parameterNumber":3,"parameterNumberName":"V-component_of_CURRENTS"},"data":[0,0,0,0,0,0,0,0,0,0,0,0,0,0,0,0,0,0,0,0,0,0,0,0,0,0,0,0,0,0,0,0,0,0,0,0,0,0,0,0,0,0,0,0,0,0,0,0,0,0,0,0,0,0,0,0,0,0,0.0147,0.0149,0,0.0309,0.031,0.0312,0.038,0.038,0.038,0.0379,0.054,0.0544,0.0548,0,0,0,0,0,0,0,0,0,0,0,0,0,-0.004,-0.0038,0.0147,0.0149,0.0151,0.0308,0.031,0.0312,0.038,0.038,0.038,0.0379,0.0538,0.0544,0.0549,0,0,0,0,0,0,0,0,0,0,0,0,0,0.0071,-0.0037,0.0146,0.0205,0.0212,0.0308,0.031,0.0313,0.038,0.038,0.0379,0.0379,0.0537,0.0543,0.055,0.0595,0,0,0.057,0.0573,0,0,0,0,0,0,0,0,0.0065,0.0078,0.0194,0.0201,0.0209,0.0325,0.0304,0.0408,0.038,0.0314,0.0379,0.0379,0.0469,0.0481,0.051,0.0603,0.0609,0.057,0.0574,0.0577,0.0579,0,0,0,0,0,0,0,0.0057,0.0072,0.0209,0.0196,0.0206,0.0245,0.026,0.0324,0.039,0.032,0.0326,0.0347,0.0473,0.0503,0.0514,0.0612,0.057,0.0576,0.058,0.0583,0.0767,0.0768,0,0,0,0,0,0,0.0038,0.0064,0.0204,0.0214,0.0137,0.0249,0.0265,0.0287,0.0389,0.0405,0.0347,0.0349,0.0492,0.0506,0.052,0.0593,0.0577,0.0583,0.0587,0.0766,0.0767,0.0768,0,0,0,0,0,0,0.0033,0.0049,0.0197,0.0144,0.0166,0.0252,0.0276,0.029,0.0321,0.041,0.0425,0.0362,0.0493,0.0511,0.0585,0.0599,0.0586,0.0592,0.0765,0.0767,0.0768,0.073,0,0,0,0,0,0,0.0027,0.0046,0.0048,0.0143,0.0168,0.0248,0.0277,0.0294,0.0335,0.034,0.0429,0.0444,0.0494,0.0575,0.0592,0.0608,0.0598,0.0764,0.0766,0.0767,0.073,0.073,0.073,0,0,0,0,0,0.002,0.0024,0.0047,0.0064,0.0171,0.0249,0.0265,0.0324,0.0336,0.035,0.0416,0.0441,0.0597,0.0581,0.0601,0.0619,0.0763,0.0765,0.0767,0.073,0.073,0.073,0,0,0,0,0,0,-0.0059,0.0035,0.0062,0.0093,0.0162,0.026,0.0277,0.032,0.0384,0.0384,0.0461,0.0482,0.0549,0.0591,0.0572,0.0677,0.0681,0.0687,0.0647,0.0647,0.0647,0.0627,0.0603,0,0,0,0,0,-0.0075,-0.0046,0.005,0.0072,0.0103,0.0188,0.0223,0.0267,0.034,0.0367,0.0433,0.0503,0.0574,0.0614,0.0676,0.074,0.0792,0.0762,0.0762,0.0762,0.0759,0.0852,0.0859,0.0775,0.0775,0.0775,0,0,-0.0103,-0.0045,-0.0032,0.0057,0.0111,0.0155,0.0208,0.0258,0.0299,0.0375,0.0438,0.0504,0.059,0.0661,0.0694,0.0698,0.0816,0.0764,0.0763,0.0761,0.0855,0.0863,0.087,0.0777,0.0776,0.0776,0,0,-0.0142,-0.0091,-0.0082,-0.0025,0.0059,0.0122,0.0133,0.0231,0.0276,0.035,0.0415,0.0493,0.0591,0.0667,0.0716,0.0754,0.0808,0.0766,0.0757,0.0847,0.0855,0.0862,0.0945,0.096,0.077,0.077,0.077,0,-0.0183,-0.015,-0.0069,-0.0039,0.0003,0.0101,0.0123,0.0192,0.0301,0.0346,0.0357,0.0532,0.0598,0.071,0.072,0.0755,0.0808,0.0749,0.0846,0.0854,0.0862,0.0946,0.0963,0.0768,0.0769,0.0769,0.0769,0,-0.0206,-0.018,-0.0169,-0.0096,-0.004,-0.0006,0.0103,0.0163,0.0226,0.0299,0.0412,0.0518,0.0624,0.0657,0.0701,0.0797,0.0818,0.0831,0.0841,0.0868,0.0956,0.0974,0.0766,0.0767,0.0767,0.0768,0,0,-0.029,-0.0207,-0.0205,-0.0185,-0.0069,-0.0027,0.0054,0.0159,0.0219,0.0319,0.0406,0.0531,0.0593,0.0652,0.0732,0.0807,0.0913,0.0834,0.0839,0.0907,0.111,0.1245,0.1278,0.0939,0.0942,0.0944,0.1151,0,-0.0336,-0.033,-0.0247,-0.0221,-0.0207,-0.0077,-0.0004,0.0106,0.0212,0.0322,0.045,0.0553,0.0594,0.0653,0.0738,0.0879,0.0958,0.0855,0.1082,0.1089,0.1198,0.1303,0.0872,0.103,0.1169,0.1172,0.1174,0,-0.0384,-0.037,-0.0375,-0.0285,-0.0261,-0.0217,-0.0076,0.0005,0.019,0.0277,0.041,0.0522,0.0682,0.0693,0.0941,0.0874,0.098,0.1073,0.1084,0.1234,0.1258,0.1027,0.1059,0.1205,0.1203,0.12,0.1198,0,-0.0506,-0.0451,-0.0467,-0.0439,-0.032,-0.0278,-0.0201,-0.0028,0.0061,0.0249,0.0342,0.0535,0.0661,0.0814,0.1033,0.0987,0.1299,0.1266,0.1485,0.1495,0.1188,0.1169,0.1418,0.1418,0.1417,0.1417,0.1416,0,-0.0589,-0.0593,-0.0532,-0.0537,-0.0521,-0.0391,-0.0319,-0.0203,-0.0015,0.0122,0.0298,0.0466,0.0695,0.0916,0.1059,0.1371,0.1335,0.1519,0.1576,0.1169,0.1146,0.1334,0.1321,0.1425,0.1423,0.1421,0.142,0,-0.0715,-0.0681,-0.0688,-0.0606,-0.0584,-0.0574,-0.0418,-0.0334,-0.0154,0.0041,0.0106,0.0432,0.0758,0.0999,0.1301,0.1444,0.1688,0.1786,0.1311,0.1314,0.1803,0.1786,0.2057,0.2064,0.2069,0.2074,0.2078,0,-0.0778,-0.0805,-0.0777,-0.0782,-0.0749,-0.0703,-0.0636,-0.0444,-0.0311,0.0053,0.0167,0.0522,0.0823,0.1332,0.1466,0.1746,0.1887,0.1702,0.1566,0.185,0.1878,0.1851,0.1827,0.1114,0.111,0.1106,0.1103,0,-0.0886,-0.0883,-0.0896,-0.0917,-0.0884,-0.0821,-0.0696,-0.0592,-0.0289,-0.0115,0.0299,0.0558,0.0964,0.1127,0.1472,0.1585,0.1626,0.1662,0.2054,0.1077,0.0995,0.1012,0.1011,0.1073,0.1076,0.1078,0.108,0.1081,-0.0961,-0.1009,-0.1023,-0.1024,-0.0986,-0.0867,-0.0726,-0.0711,-0.0514,-0.0303,0.0136,0.0348,0.0685,0.092,0.1216,0.1412,0.1508,0.1541,0.1535,0.1535,0.1448,0.1388,0.1521,0.1526,0.153,0.1535,0.1538,0,-0.1053,-0.1066,-0.1102,-0.106,-0.1035,-0.0932,-0.0683,-0.0689,-0.0589,-0.0563,-0.0358,-0.0068,0.0123,0.0561,0.0704,0.1041,0.0848,0.1211,0.0824,0.0847,0.087,0.0737,0.0628,0.0629,0.0629,0.063,0,0,-0.1095,-0.1166,-0.1171,-0.1118,-0.102,-0.0963,-0.0764,-0.086,-0.0897,-0.0958,-0.0891,-0.0779,-0.0066,-0.007,0.0265,0.0434,0.0565,0.0428,0.1071,0.0575,0.0595,0.0931,0.0742,0,0,0,0,0]}],[{"header":{"parameterUnit":"m.s-1","parameterCategory":2,"la1":30.2991,"la2":30.254,"lo1":-89.0895,"lo2":-89.0444,"dy":0.0017,"dx":0.0017,"nx":28,"ny":28,"refTime":"2024-04-10T09:00:00:Z","depth":"4","parameterNumber":2,"parameterNumberName":"U-component_of_CURRENTS"},"data":[0,0,0,0,0,0,0,0,0,0,0,0,0,0,0,0,0,0,0,0,0,0,0,0,0,0,0,0,0,0,0,0,0,0,0,0,0,0,0,0,0,0,0,0,0,0,0,0,0,0,0,0,0,0,0,0,0,0,-0.1389,-0.1389,0,-0.1449,-0.1449,-0.145,-0.147,-0.147,-0.147,-0.147,-0.1459,-0.1459,-0.1458,0,0,0,0,0,0,0,0,0,0,0,0,0,-0.1269,-0.1271,-0.1388,-0.1389,-0.139,-0.1449,-0.1449,-0.145,-0.147,-0.147,-0.147,-0.147,-0.1459,-0.1459,-0.1458,0,0,0,0,0,0,0,0,0,0,0,0,0,-0.1322,-0.1271,-0.1388,-0.1409,-0.1412,-0.1449,-0.1449,-0.145,-0.147,-0.147,-0.147,-0.1469,-0.1459,-0.1459,-0.1458,-0.1457,0,0,-0.1457,-0.1457,0,0,0,0,0,0,0,0,-0.1319,-0.1326,-0.1405,-0.1408,-0.1411,-0.1454,-0.1403,-0.145,-0.147,-0.1445,-0.147,-0.1469,-0.1452,-0.1452,-0.1461,-0.1457,-0.1456,-0.1457,-0.1457,-0.1457,-0.1457,0,0,0,0,0,0,0,-0.1315,-0.1323,-0.141,-0.1406,-0.141,-0.1408,-0.1415,-0.1412,-0.1445,-0.1447,-0.1449,-0.146,-0.1453,-0.1462,-0.1461,-0.1456,-0.1457,-0.1457,-0.1457,-0.1456,-0.151,-0.1512,0,0,0,0,0,0,-0.1314,-0.132,-0.1408,-0.1412,-0.1366,-0.141,-0.1419,-0.1438,-0.1447,-0.1449,-0.146,-0.1461,-0.1462,-0.1462,-0.1461,-0.153,-0.1457,-0.1456,-0.1456,-0.1509,-0.1511,-0.1512,0,0,0,0,0,0,-0.1311,-0.1322,-0.1406,-0.1368,-0.1379,-0.1413,-0.1434,-0.1439,-0.1476,-0.1458,-0.1458,-0.1495,-0.1462,-0.1461,-0.149,-0.1527,-0.1456,-0.1456,-0.1507,-0.1509,-0.1512,-0.1624,0,0,0,0,0,0,-0.1308,-0.1321,-0.1344,-0.1369,-0.1382,-0.1447,-0.1435,-0.1441,-0.1482,-0.1484,-0.1487,-0.1484,-0.1462,-0.1491,-0.1489,-0.1525,-0.1456,-0.1505,-0.1508,-0.1511,-0.1618,-0.163,-0.164,0,0,0,0,0,-0.1303,-0.1328,-0.1344,-0.1356,-0.1409,-0.1449,-0.1456,-0.1476,-0.1484,-0.1508,-0.1515,-0.1486,-0.1509,-0.1492,-0.149,-0.1527,-0.1503,-0.1507,-0.1511,-0.1613,-0.1628,-0.164,0,0,0,0,0,0,-0.1281,-0.1334,-0.1352,-0.1391,-0.1429,-0.1453,-0.1479,-0.1497,-0.1524,-0.1531,-0.1511,-0.151,-0.1546,-0.1522,-0.1504,-0.155,-0.1499,-0.1503,-0.1578,-0.1591,-0.1602,-0.1592,-0.1455,0,0,0,0,0,-0.1291,-0.1328,-0.1372,-0.1406,-0.1429,-0.1463,-0.1486,-0.1505,-0.1528,-0.1542,-0.1549,-0.1551,-0.1556,-0.1564,-0.1561,-0.1591,-0.1551,-0.1611,-0.1622,-0.1632,-0.1623,-0.1602,-0.161,-0.1525,-0.1525,-0.1525,0,0,-0.1288,-0.1325,-0.1345,-0.1405,-0.1436,-0.1484,-0.1477,-0.1524,-0.1567,-0.1534,-0.1596,-0.1592,-0.1572,-0.1607,-0.162,-0.1596,-0.164,-0.1636,-0.1645,-0.163,-0.1606,-0.1615,-0.1622,-0.1527,-0.1527,-0.1526,0,0,-0.1301,-0.1343,-0.138,-0.1425,-0.1486,-0.1511,-0.1535,-0.1586,-0.1613,-0.1669,-0.1654,-0.1673,-0.1695,-0.1686,-0.1682,-0.175,-0.1698,-0.1757,-0.1808,-0.179,-0.1796,-0.1801,-0.178,-0.1782,-0.1764,-0.1764,-0.1765,0,-0.1292,-0.1358,-0.1395,-0.145,-0.1494,-0.1532,-0.1586,-0.1621,-0.1676,-0.1699,-0.1702,-0.1736,-0.1727,-0.175,-0.178,-0.1774,-0.1753,-0.1763,-0.1804,-0.1807,-0.1811,-0.1787,-0.1788,-0.177,-0.177,-0.1769,-0.1768,0,-0.1332,-0.1401,-0.143,-0.1516,-0.1565,-0.162,-0.1677,-0.1728,-0.1769,-0.1794,-0.1842,-0.1836,-0.1848,-0.1859,-0.1844,-0.187,-0.1846,-0.182,-0.1769,-0.1826,-0.1798,-0.1797,-0.1779,-0.1777,-0.1775,-0.1773,0,0,-0.1251,-0.1426,-0.1436,-0.1506,-0.1611,-0.1652,-0.1733,-0.1804,-0.1851,-0.1897,-0.1941,-0.1965,-0.1958,-0.1951,-0.1936,-0.1927,-0.1947,-0.1896,-0.1892,-0.1873,-0.191,-0.1831,-0.1821,-0.1934,-0.1934,-0.1934,-0.1888,0,-0.1268,-0.1399,-0.1477,-0.1594,-0.1664,-0.1743,-0.1814,-0.1881,-0.1931,-0.1981,-0.1978,-0.201,-0.1994,-0.2006,-0.1999,-0.1956,-0.1947,-0.1962,-0.1858,-0.1854,-0.1775,-0.1818,-0.1935,-0.1887,-0.1887,-0.1886,-0.1886,0,-0.1264,-0.1363,-0.1495,-0.166,-0.1695,-0.1767,-0.1883,-0.1951,-0.2019,-0.2057,-0.2084,-0.208,-0.2086,-0.2057,-0.2013,-0.2028,-0.198,-0.194,-0.1937,-0.1815,-0.1771,-0.1813,-0.1883,-0.1883,-0.1883,-0.1884,-0.1884,0,-0.1185,-0.1363,-0.148,-0.1537,-0.1721,-0.1788,-0.187,-0.1966,-0.2021,-0.2092,-0.2124,-0.2134,-0.2129,-0.2086,-0.2023,-0.2024,-0.1953,-0.1936,-0.1815,-0.1809,-0.1844,-0.1838,-0.1892,-0.1892,-0.1892,-0.1892,-0.1892,0,-0.1162,-0.1247,-0.1461,-0.1523,-0.163,-0.1767,-0.1865,-0.1944,-0.2046,-0.2085,-0.2146,-0.2149,-0.2136,-0.2097,-0.2037,-0.1922,-0.1963,-0.1821,-0.179,-0.1896,-0.1897,-0.1844,-0.1839,-0.189,-0.189,-0.1891,-0.1891,0,-0.1054,-0.1208,-0.1334,-0.1544,-0.1602,-0.1669,-0.1847,-0.191,-0.2026,-0.2074,-0.2096,-0.2155,-0.2104,-0.2072,-0.1989,-0.1923,-0.1831,-0.1776,-0.1897,-0.1874,-0.1699,-0.17,-0.1641,-0.1637,-0.1635,-0.1632,-0.163,0,-0.1018,-0.1083,-0.1302,-0.1368,-0.1467,-0.1597,-0.168,-0.1856,-0.1913,-0.2045,-0.2039,-0.2055,-0.2061,-0.1874,-0.1874,-0.1767,-0.1736,-0.1703,-0.1698,-0.1696,-0.1673,-0.1679,-0.1684,-0.1626,-0.1625,-0.1625,-0.1624,0,-0.0921,-0.1009,-0.1113,-0.1235,-0.1346,-0.1452,-0.158,-0.1615,-0.1794,-0.1936,-0.1919,-0.1899,-0.1841,-0.178,-0.1717,-0.164,-0.174,-0.1674,-0.1679,-0.1674,-0.1677,-0.1658,-0.1667,-0.1614,-0.1616,-0.1617,-0.1617,0,-0.0821,-0.085,-0.0979,-0.1069,-0.1193,-0.1244,-0.1356,-0.1444,-0.1527,-0.1715,-0.1699,-0.1727,-0.1803,-0.1712,-0.165,-0.1583,-0.1553,-0.1511,-0.1524,-0.1535,-0.1525,-0.1515,-0.1371,0,0,0,0,0,-0.0708,-0.0725,-0.0802,-0.0888,-0.1003,-0.1055,-0.1254,-0.1379,-0.1573,-0.1518,-0.1612,-0.156,-0.1514,-0.1538,-0.1435,-0.1578,-0.1536,-0.1458,-0.149,-0.1562,-0.1573,-0.1572,0,0,0,0,0,0,-0.0634,-0.0693,-0.073,-0.0702,-0.0716,-0.0807,-0.0921,-0.1073,-0.1074,-0.1283,-0.1251,-0.1437,-0.1386,-0.1482,-0.1367,-0.138,-0.1373,-0.1513,-0.151,-0.1555,-0.1565,-0.1574,-0.1578,0,0,0,0,0]},{"header":{"parameterUnit":"m.s-1","parameterCategory":2,"la1":30.2991,"la2":30.254,"lo1":-89.0895,"lo2":-89.0444,"dy":0.0017,"dx":0.0017,"nx":28,"ny":28,"refTime":"2024-04-10T09:00:00:Z","depth":"4","parameterNumber":3,"parameterNumberName":"V-component_of_CURRENTS"},"data":[0,0,0,0,0,0,0,0,0,0,0,0,0,0,0,0,0,0,0,0,0,0,0,0,0,0,0,0,0,0,0,0,0,0,0,0,0,0,0,0,0,0,0,0,0,0,0,0,0,0,0,0,0,0,0,0,0,0,-0.0527,-0.0526,0,-0.0434,-0.0433,-0.0432,-0.0388,-0.0388,-0.0388,-0.0388,-0.0276,-0.0273,-0.027,0,0,0,0,0,0,0,0,0,0,0,0,0,-0.0597,-0.0596,-0.0528,-0.0526,-0.0525,-0.0434,-0.0433,-0.0431,-0.0388,-0.0388,-0.0388,-0.0388,-0.0277,-0.0273,-0.027,0,0,0,0,0,0,0,0,0,0,0,0,0,-0.0542,-0.0596,-0.0528,-0.0492,-0.0488,-0.0434,-0.0432,-0.0431,-0.0388,-0.0388,-0.0388,-0.0388,-0.0278,-0.0274,-0.0269,-0.0241,0,0,-0.0255,-0.0253,0,0,0,0,0,0,0,0,-0.0545,-0.054,-0.0498,-0.0494,-0.049,-0.0422,-0.0416,-0.0366,-0.0388,-0.0426,-0.0388,-0.0388,-0.0323,-0.0315,-0.0298,-0.0235,-0.023,-0.0255,-0.0252,-0.025,-0.0249,0,0,0,0,0,0,0,-0.0549,-0.0543,-0.0491,-0.0497,-0.0492,-0.0456,-0.0449,-0.0406,-0.0375,-0.0423,-0.0419,-0.0408,-0.032,-0.0302,-0.0295,-0.0229,-0.0255,-0.0251,-0.0248,-0.0247,-0.0094,-0.0092,0,0,0,0,0,0,-0.0564,-0.0547,-0.0494,-0.0488,-0.0518,-0.0455,-0.0447,-0.0444,-0.0376,-0.0366,-0.0408,-0.0406,-0.031,-0.03,-0.0291,-0.022,-0.025,-0.0246,-0.0244,-0.0095,-0.0093,-0.0092,0,0,0,0,0,0,-0.0566,-0.056,-0.0498,-0.0514,-0.0504,-0.0454,-0.0451,-0.0442,-0.0425,-0.0365,-0.0355,-0.04,-0.0309,-0.0297,-0.0239,-0.0217,-0.0244,-0.024,-0.0097,-0.0094,-0.0093,-0.01,0,0,0,0,0,0,-0.0568,-0.0562,-0.0572,-0.0516,-0.0503,-0.047,-0.045,-0.044,-0.0418,-0.0415,-0.0355,-0.0344,-0.0309,-0.0246,-0.0234,-0.0211,-0.0236,-0.0098,-0.0096,-0.0093,-0.0102,-0.0099,-0.0096,0,0,0,0,0,-0.0571,-0.0586,-0.0573,-0.0567,-0.0517,-0.047,-0.0461,-0.0425,-0.0418,-0.041,-0.0359,-0.0346,-0.0222,-0.0241,-0.0228,-0.0203,-0.01,-0.0096,-0.0093,-0.0103,-0.01,-0.0096,0,0,0,0,0,0,-0.0632,-0.0581,-0.0566,-0.0568,-0.0524,-0.0463,-0.0458,-0.0429,-0.0384,-0.0384,-0.0328,-0.0313,-0.0256,-0.0226,-0.0249,-0.015,-0.0159,-0.0153,-0.0171,-0.0167,-0.0164,-0.0176,-0.0233,0,0,0,0,0,-0.0648,-0.0643,-0.0584,-0.0589,-0.0569,-0.0514,-0.0494,-0.0466,-0.0415,-0.0396,-0.0345,-0.029,-0.0233,-0.0199,-0.0153,-0.0097,-0.0073,-0.0072,-0.0069,-0.0067,-0.0067,0.0,0.0009,-0.0082,-0.0082,-0.0082,0,0,-0.0677,-0.0646,-0.0648,-0.06,-0.0567,-0.0533,-0.0503,-0.0475,-0.0441,-0.039,-0.0335,-0.0285,-0.0218,-0.0154,-0.0125,-0.0125,-0.0031,-0.0063,-0.0062,-0.0063,0.0004,0.0013,0.0021,-0.008,-0.008,-0.0081,0,0,-0.0715,-0.0701,-0.0699,-0.066,-0.0606,-0.0563,-0.0556,-0.0488,-0.0455,-0.0396,-0.0344,-0.0274,-0.02,-0.013,-0.009,-0.0042,-0.0025,-0.0033,-0.0019,0.0046,0.0053,0.006,0.0086,0.0096,-0.0024,-0.0024,-0.0024,0,-0.0759,-0.0737,-0.0693,-0.0668,-0.064,-0.0577,-0.0556,-0.0507,-0.0427,-0.0388,-0.0385,-0.0237,-0.0183,-0.0079,-0.0058,-0.0035,-0.0014,-0.004,0.0048,0.0056,0.0063,0.0088,0.0099,-0.0024,-0.0024,-0.0024,-0.0024,0,-0.0769,-0.0757,-0.0753,-0.0697,-0.066,-0.0637,-0.0557,-0.0513,-0.0468,-0.0407,-0.0311,-0.0225,-0.0135,-0.0101,-0.0063,0.0029,0.002,0.0035,0.0034,0.0071,0.0096,0.0107,-0.0024,-0.0024,-0.0024,-0.0024,0,0,-0.0865,-0.0781,-0.0781,-0.0759,-0.0674,-0.0647,-0.0583,-0.0499,-0.0455,-0.0368,-0.03,-0.0178,-0.0129,-0.0079,-0.0013,0.0055,0.0127,0.0065,0.0069,0.0079,0.0241,0.0189,0.0196,0.0154,0.0156,0.0158,0.023,0,-0.0892,-0.0862,-0.0801,-0.0772,-0.075,-0.0665,-0.061,-0.0525,-0.0447,-0.0364,-0.0251,-0.0169,-0.012,-0.0076,0.0005,0.0101,0.0158,0.0104,0.0213,0.0216,0.0157,0.0209,0.0166,0.0239,0.0241,0.0243,0.0245,0,-0.0913,-0.0893,-0.0871,-0.0802,-0.0785,-0.0755,-0.066,-0.0599,-0.0457,-0.0395,-0.028,-0.0196,-0.0057,-0.0043,0.014,0.0099,0.0165,0.0229,0.0233,0.0196,0.0185,0.02,0.0265,0.0263,0.0262,0.026,0.0259,0,-0.0987,-0.0937,-0.0925,-0.0903,-0.0815,-0.0793,-0.0743,-0.0617,-0.0561,-0.0415,-0.0361,-0.0192,-0.0111,0.0013,0.0158,0.0149,0.0331,0.0335,0.0346,0.0342,0.0367,0.0359,0.0443,0.0443,0.0443,0.0443,0.0442,0,-0.102,-0.1017,-0.0969,-0.0965,-0.096,-0.0869,-0.083,-0.0749,-0.0627,-0.0559,-0.0392,-0.0307,-0.0093,0.0042,0.0156,0.0287,0.0333,0.0355,0.0369,0.036,0.035,0.0374,0.0365,0.0445,0.0445,0.0444,0.0444,0,-0.1077,-0.1045,-0.1045,-0.0999,-0.0993,-0.099,-0.0914,-0.0876,-0.0747,-0.0655,-0.0612,-0.0384,-0.0206,-0.0013,0.0196,0.0272,0.0406,0.0432,0.0392,0.0401,0.0367,0.0357,0.045,0.0449,0.0449,0.0448,0.0447,0,-0.1087,-0.1095,-0.1101,-0.1127,-0.1114,-0.1098,-0.1083,-0.096,-0.0907,-0.0706,-0.0668,-0.0463,-0.031,-0.0044,0.0152,0.0363,0.0383,0.0442,0.0425,0.0369,0.0374,0.0365,0.0356,0.0446,0.0446,0.0446,0.0445,0,-0.1118,-0.1136,-0.1142,-0.1213,-0.1232,-0.1226,-0.1192,-0.1157,-0.0998,-0.0896,-0.0705,-0.0516,-0.0315,-0.0077,0.0094,0.0244,0.0408,0.0433,0.0436,0.0421,0.0365,0.0368,0.0361,0.0442,0.0443,0.0443,0.0443,0,-0.1147,-0.1179,-0.1219,-0.1261,-0.1308,-0.1319,-0.1294,-0.1202,-0.1119,-0.0885,-0.0836,-0.0566,-0.0389,-0.0141,0.0018,0.0168,0.0192,0.0225,0.0239,0.0244,0.0165,0.0063,0.0068,0,0,0,0,0,-0.116,-0.1195,-0.1261,-0.1304,-0.1358,-0.1374,-0.1339,-0.1289,-0.1147,-0.1038,-0.0922,-0.073,-0.0428,-0.0267,-0.0135,-0.0033,0.0191,0.0124,0.0227,0.0427,0.043,0.0369,0,0,0,0,0,0,-0.1171,-0.1235,-0.126,-0.1322,-0.1361,-0.1401,-0.1379,-0.13,-0.1207,-0.1053,-0.089,-0.0733,-0.0446,-0.0518,-0.0144,-0.0089,-0.0014,0.0291,0.0293,0.0425,0.0428,0.043,0.0369,0,0,0,0,0]}]]